Location: Saratoga Springs
(43.0831°N, 73.7850°W)
Time: 08:24:24
(UTC-04:00)

Vanguard 1 Rocket - Pass Details

Date: 19 April 2024
Orbit: 650 x 4220 km, 34.3° (Epoch: 22 May)

Event Time Altitude Azimuth Distance (km) Brightness Sun altitude
Rises 02:37:43 0° 269° (W) 5,326 - -30.6°
Reaches altitude 10° 02:42:02 10° 254° (WSW) 4,860 - -30.2°
Maximum altitude 02:51:43 21° 212° (SSW) 5,031 - -29.3°
Exits shadow 03:05:05 10° 174° (S) 6,907 11.4 -27.9°
Drops below altitude 10° 03:05:15 10° 174° (S) 6,936 11.5 -27.9°
Sets 03:13:47 0° 161° (SSE) 8,329 12.0 -26.9°
